This demonstration page uses our WeatherBlox Daily Observations layout. Learn more.

Left ArrowRight Arrow

Hourly Observations for January 25, 2017

Temp ( °F °C ) Dew Point ( °F °C ) Humidity (%) Winds ( mph kmh ) Pressure ( in mb ) Visibility ( mi km ) Precip ( " mm )
12:52 am 00:52 Clear 48 8.9 41 5 77 77 S 8 13 29.57 1001 10 16 0.00 0.00
1:52 am 01:52 Mostly Clear 50 10 40 4.4 68 68 W 15 24 29.60 1002 10 16 0.00 0.00
2:52 am 02:52 Mostly Cloudy 43 6.1 36 2.2 76 76 WNW 17 28 29.63 1003 10 16 0.00 0.00
3:43 am 03:43 Mostly Cloudy 41 5 35 1.7 79 79 W 15 24 29.68 1005 10 16 0.00 0.00
3:52 am 03:52 Cloudy 41 5 35 1.7 79 79 W 18 30 29.65 1004 10 16 0.00 0.00
4:34 am 04:34 Mostly Cloudy 39 4 34 1 81 81 W 17 28 29.71 1006 10 16 0.00 0.00
4:52 am 04:52 Mostly Cloudy 40 4.4 33 0.6 77 77 W 20 31 29.69 1006 10 16 0.00 0.00
5:27 am 05:27 Cloudy 39 4 34 1 81 81 W 18 30 29.74 1007 10 16 0.00 0.00
5:43 am 05:43 Mostly Cloudy 39 3.9 33 0.6 79 79 W 17 28 29.74 1007 10 16 0.00 0.00
5:52 am 05:52 Mostly Cloudy 40 4.4 33 0.6 77 77 W 15 24 29.71 1006 10 16 0.00 0.00
6:52 am 06:52 Mostly Cloudy 38 3.3 28 -2.2 68 68 W 22 35 29.74 1007 10 16 0.00 0.00
7:52 am 07:52 Sunny 36 2.2 27 -2.8 70 70 W 16 26 29.75 1008 10 16 0.00 0.00
8:52 am 08:52 Sunny 37 2.8 27 -2.8 67 67 WNW 21 33 29.77 1008 10 16 0.00 0.00
9:52 am 09:52 Partly Cloudy 38 3.3 28 -2.2 68 68 WNW 16 26 29.80 1009 10 16 0.00 0.00
10:02 am 10:02 Mostly Cloudy 38 3.3 28 -2.2 68 68 W 18 30 29.83 1010 10 16 0.00 0.00
10:52 am 10:52 Cloudy 38 3.3 29 -1.7 70 70 W 14 22 29.82 1010 10 16 0.00 0.00
11:52 am 11:52 Cloudy 39 3.9 27 -2.8 62 62 W 18 30 29.82 1010 10 16 0.00 0.00
12:40 pm 12:40 Partly Cloudy 41 5 27 -3 57 57 W 20 31 29.83 1010 10 16 0.00 0.00
12:52 pm 12:52 Mostly Sunny 43 6.1 28 -2.2 56 56 W 16 26 29.80 1009 10 16 0.00 0.00
1:10 pm 13:10 Mostly Cloudy 41 5 27 -3 57 57 WNW 18 30 29.83 1010 10 16 0.00 0.00
1:18 pm 13:18 Partly Cloudy 43 6 27 -3 53 53 WNW 22 35 29.83 1010 10 16 0.00 0.00
1:52 pm 13:52 Sunny 42 5.6 26 -3.3 53 53 W 20 31 29.80 1009 10 16 0.00 0.00
2:52 pm 14:52 Partly Cloudy 43 6.1 25 -3.9 49 49 W 20 31 29.82 1010 10 16 0.00 0.00
3:52 pm 15:52 Mostly Cloudy 41 5 25 -3.9 53 53 W 22 35 29.83 1010 10 16 0.00 0.00
4:52 pm 16:52 Mostly Sunny 39 3.9 24 -4.4 55 55 W 17 28 29.88 1012 10 16 0.00 0.00
5:52 pm 17:52 Cloudy 38 3.3 23 -5 55 55 WNW 10 17 29.91 1013 10 16 0.00 0.00
6:52 pm 18:52 Cloudy 37 2.8 23 -5 57 57 WNW 14 22 29.93 1014 10 16 0.00 0.00
7:52 pm 19:52 Mostly Cloudy 36 2.2 23 -5 59 59 NW 10 17 29.95 1014 10 16 0.00 0.00
8:52 pm 20:52 Mostly Cloudy 34 1.1 22 -5.6 61 61 NW 13 20 29.96 1015 10 16 0.00 0.00
9:52 pm 21:52 Cloudy 34 1.1 22 -5.6 61 61 WNW 10 17 29.98 1015 10 16 0.00 0.00
10:52 pm 22:52 Cloudy 34 1.1 22 -5.6 61 61 WNW 10 17 29.99 1016 10 16 0.00 0.00
11:39 pm 23:39 Cloudy 33 0.6 22 -5.6 64 64 WNW 15 24 30.03 1017 10 16 0.00 0.00
11:52 pm 23:52 Cloudy 33 0.6 22 -5.6 64 64 WNW 13 20 30.00 1016 10 16 0.00 0.00

Powered by AerisWeather